Location: Fontevrault
(47.1823°N, 0.0493°E)
Time: 09:18:57
(UTC+00:00)

CZ-2D DEB - Visible Passes

Search period start: 20 January 2022 00:00
Search period end: 30 January 2022 00:00
Orbit: 769 x 1113 km, 98.4° (Epoch: 19 January)

Date Brightness Start Highest point End Pass type
(mag) Time Alt. Az. Time Alt. Az. Time Alt. Az.
20 Jan ? 04:57:13 10° ESE 05:01:37 30° ENE 05:06:16 10° N visible
20 Jan ? 06:39:18 10° SSW 06:44:06 41° W 06:49:12 10° NNW visible
20 Jan ? 17:28:44 10° NE 17:32:48 18° E 17:37:01 10° SE visible
20 Jan ? 19:09:49 10° NNE 19:16:02 89° WNW 19:22:43 10° SSW visible
20 Jan ? 20:53:44 10° NNW 20:57:56 20° WNW 21:02:20 10° W visible
21 Jan ? 05:11:22 10° SE 05:16:05 39° ENE 05:21:07 10° N visible
21 Jan ? 06:54:19 10° SSW 06:58:50 31° W 07:03:36 10° NNW visible
21 Jan ? 17:42:45 10° NE 17:47:38 23° E 17:52:42 10° SE visible
21 Jan ? 19:24:28 10° N 19:30:40 72° WNW 19:37:17 10° SSW visible
21 Jan ? 21:08:50 10° NNW 21:12:21 16° NW 21:15:58 10° W visible
22 Jan ? 05:25:38 10° SE 05:30:35 51° ENE 05:35:54 10° N visible
22 Jan ? 17:56:59 10° NE 18:02:26 29° E 18:08:07 10° SSE visible
22 Jan ? 19:39:09 10° N 19:45:15 57° WNW 19:51:45 10° SW visible
22 Jan ? 21:24:12 10° NNW 21:26:42 13° NW 21:29:16 10° WNW visible
23 Jan ? 04:01:45 10° ENE 04:03:39 12° NE 04:05:35 10° NNE visible
23 Jan ? 05:40:01 10° SSE 05:45:07 67° ENE 05:50:37 10° N visible
23 Jan ? 18:11:19 10° NNE 18:17:10 38° E 18:23:19 10° SSE visible
23 Jan ? 19:53:53 10° N 19:59:49 46° WNW 20:06:07 10° SW visible
24 Jan ? 04:14:58 10° E 04:17:59 15° NE 04:21:06 10° NNE visible
24 Jan ? 05:54:31 10° SSE 05:59:42 87° ENE 06:05:18 10° NNW visible
24 Jan ? 18:25:46 10° NNE 18:31:54 48° E 18:38:23 10° S visible
24 Jan ? 20:08:39 10° N 20:14:20 37° WNW 20:20:21 10° SW visible
25 Jan ? 04:28:37 10° ESE 04:32:21 20° ENE 04:36:15 10° NNE visible
25 Jan ? 06:09:08 10° S 06:14:19 71° WSW 06:19:55 10° NNW visible
25 Jan ? 18:40:16 10° NNE 18:46:36 61° E 18:53:17 10° S visible
25 Jan ? 20:23:28 10° N 20:28:50 30° WNW 20:34:28 10° WSW visible
26 Jan ? 04:42:29 10° ESE 04:46:44 25° ENE 04:51:15 10° N visible
26 Jan ? 06:23:52 10° S 06:28:58 54° W 06:34:29 10° NNW visible
26 Jan ? 18:54:49 10° NNE 19:01:17 77° ESE 19:08:04 10° S visible
26 Jan ? 20:38:21 10° N 20:43:18 24° WNW 20:48:27 10° WSW visible
27 Jan ? 04:56:30 10° SE 05:01:10 32° ENE 05:06:09 10° N visible
27 Jan ? 06:38:44 10° SSW 06:43:40 41° W 06:48:59 10° NNW visible
27 Jan ? 17:28:10 10° NE 17:32:41 19° E 17:37:19 10° SE visible
27 Jan ? 19:09:26 10° NNE 19:15:55 86° WNW 19:22:45 10° SSW visible
27 Jan ? 20:53:19 10° NNW 20:57:44 20° NW 21:02:17 10° W visible
28 Jan ? 05:10:41 10° SE 05:15:38 41° ENE 05:20:59 10° N visible
28 Jan ? 06:53:45 10° SSW 06:58:24 31° W 07:03:24 10° NNW visible
28 Jan ? 17:42:16 10° NE 17:47:31 25° E 17:52:54 10° SE visible
28 Jan ? 19:24:06 10° N 19:30:32 70° WNW 19:37:18 10° SSW visible
28 Jan ? 21:08:25 10° NNW 21:12:07 16° NW 21:15:55 10° W visible
29 Jan ? 03:48:07 10° NE 03:48:55 10° NE 03:49:42 10° NE visible
29 Jan ? 05:24:58 10° SE 05:30:08 54° ENE 05:35:45 10° N visible
29 Jan ? 17:56:33 10° NNE 18:02:18 32° E 18:08:16 10° SSE visible
29 Jan ? 19:38:47 10° N 19:45:08 56° WNW 19:51:44 10° SW visible
29 Jan ? 21:23:44 10° NNW 21:26:28 13° NW 21:29:15 10° WNW visible
